www.pogodaiklimat.ru
ПОГОДА в Крайове
Время
(UTC), дата
10 13.02
11 13.02
12 13.02
13 13.02
14 13.02
15 13.02
16 13.02
17 13.02
18 13.02
19 13.02
20 13.02
21 13.02
22 13.02
23 13.02
00 14.02
01 14.02
02 14.02
03 14.02
04 14.02
05 14.02
06 14.02
07 14.02
08 14.02
09 14.02
10 14.02
11 14.02
12 14.02
13 14.02
14 14.02
15 14.02
16 14.02
17 14.02
18 14.02
19 14.02
20 14.02
21 14.02
22 14.02
23 14.02
00 15.02
01 15.02
02 15.02
03 15.02
04 15.02
05 15.02
06 15.02
07 15.02
08 15.02
09 15.02
10 15.02
11 15.02
12 15.02
13 15.02
14 15.02
15 15.02
16 15.02
17 15.02
18 15.02
19 15.02
20 15.02
21 15.02
22 15.02
23 15.02
00 16.02
01 16.02
02 16.02
03 16.02
04 16.02
05 16.02
06 16.02
07 16.02
08 16.02
09 16.02
10 16.02
11 16.02
12 16.02
13 16.02
14 16.02
15 16.02
16 16.02
17 16.02
18 16.02
19 16.02
20 16.02
21 16.02
22 16.02
23 16.02
00 17.02
01 17.02
02 17.02
03 17.02
04 17.02
05 17.02
06 17.02
07 17.02
08 17.02
09 17.02
10 17.02
11 17.02
12 17.02
13 17.02
14 17.02
15 17.02
16 17.02
17 17.02
18 17.02
19 17.02
20 17.02
21 17.02
22 17.02
23 17.02
00 18.02
01 18.02
02 18.02
03 18.02
04 18.02
05 18.02
06 18.02
07 18.02
08 18.02
09 18.02
10 18.02
11 18.02
12 18.02
13 18.02
14 18.02
15 18.02
16 18.02
17 18.02
18 18.02
19 18.02
20 18.02
21 18.02
22 18.02
23 18.02
00 19.02
01 19.02
02 19.02
03 19.02
04 19.02
05 19.02
06 19.02
07 19.02
08 19.02
09 19.02
10 19.02
11 19.02
12 19.02
13 19.02
14 19.02
15 19.02
16 19.02
17 19.02
18 19.02
19 19.02
20 19.02
21 19.02
22 19.02
23 19.02
00 20.02
01 20.02
02 20.02
03 20.02
04 20.02
05 20.02
06 20.02
07 20.02
08 20.02
09 20.02
Ветер
(напр.,м/с)
Видим. Явления Облачность Т
(С)
Тd
(С)
f
(%)
Тe
(С)
Тes
(С)
Комфортность P
(гПа)
Po
(гПа)
Тmin
(С)
Tmax
(С)
R
(мм)
R24
(мм)
S
(см)
З 3 10 км 5/0
[Ac lent Ci fib]
+9.1 -1.5 47 +7 +12 1024.9 1001.2
ЮЗ 5 10 км 5/0
[Ac lent Ci fib]
+10.2 -2.0 42 +8 +11 1024.2 1000.6
З 5-8
{9}
10 км 5/0
[Ac lent Ci fib]
+11.4 -2.6 37 +9 +12 1023.8 1000.3 0
З 6 10 км 8/0
[Ac lent Cs]
+12.0 -2.6 36 +10 +11 1023.4 1000.0
З 6 10 км 8/3 1000 м
[Cu hum Cs]
+11.9 -5.4 29 +10 +10 1023.3 999.8
З 6-9
{10}
10 км 8/3 1000 м
[Cu hum Cs]
+11.5 -5.1 31 +9 +9 1023.2 999.7
З 4 10 км 8/0
[Cs]
+10.1 -5.2 34 +8 +8 1023.3 999.7
СЗ 2 10 км 3/0
[Ac lent]
+7.5 -4.7 42 +6 +6 1023.9 1000.1
З 2-3
{3}
10 км ясно +7.4 -4.6 42 +6 +6 1023.9 1000.1 -0.6 +12.4 0
Ю 2 10 км ясно +6.9 -4.9 43 +5 +5 1023.8 999.9
ЮВ 2 10 км ясно +5.2 -4.8 48 +3 +3 1023.5 999.5
В 3-4
{4}
10 км ясно +4.0 -4.5 54 +1 +1 1023.1 999.0
В 4 10 км ясно +3.1 -4.2 59 -1 -1 1022.6 998.4
СВ 3 10 км ясно +2.0 -4.5 62 -2 -2 1022.5 998.2
СВ 4-5
{5}
10 км ясно +0.7 -4.4 69 -4 -4 1022.3 997.9 0
СВ 3 10 км 5/0
[Ac lent Ci fib]
+0.2 -4.6 70 -4 -4 1022.1 997.7
СВ 4 10 км 8/0
[Cs]
+0.2 -4.9 69 -5 -5 1020.9 996.5
СВ 4-6
{6}
10 км 9/0
[Ac As]
+0.1 -5.0 69 -5 -5 1020.1 995.8
СВ 3 10 км 9/0
[Ac As]
+0.5 -4.9 67 -4 -4 1019.8 995.5
СВ 3 10 км 9/0
[Cs]
+0.1 -4.9 69 -4 -4 1019.1 994.8
СВ 3-6
{6}
10 км 9/0
[Ac lent Cs]
-0.1 -5.4 67 -4 -4 1018.9 994.5 -0.3 +7.9 0
СВ 5 10 км 9/0
[Ac As]
+0.6 -5.1 66 -5 -5 1018.7 994.4
В 4 10 км 9/0
[Ac lent Cs]
+2.5 -4.5 60 -2 -0 1018.3 994.2
В 5-8
{9}
10 км 9/0
[Ac lent Cs]
+5.0 -4.1 52 +1 +3 1017.9 994.0
СВ 3 10 км 9/0
[Ac As]
+6.7 -3.5 48 +4 +6 1017.9 994.1
В 3 10 км 10/5 600 м
[Sc Ac As]
+6.9 -2.9 50 +4 +5 1016.9 993.2
С 2-4
{4}
10 км 10/5 600 м
[Sc Ac As]
+7.7 -2.6 48 +6 +7 1017.0 993.4 0
С 1 10 км 10/5 600 м
[Sc diur, vesp Ac As]
+8.5 -3.1 44 +8 +9 1016.2 992.6
ЮЗ 1 10 км 10/6 600 м
[Sc diur, vesp Ac As]
+7.6 -2.8 48 +7 +8 1016.7 993.1
СЗ 1-2
{2}
10 км 10/6 600 м
[Sc diur, vesp Ac As]
+7.7 -0.9 54 +7 +7 1016.5 992.8
З 2 10 км 10/6 600 м
[Sc Ac As]
+6.4 -0.9 60 +5 +5 1017.1 993.4
З 2 10 км 10/6 600 м
[Sc Ac As]
+5.7 +0.2 68 +4 +4 1018.0 994.1
З 2-2
{3}
10 км 10/5 600 м
[Sc Ac As]
+5.7 0.0 67 +4 +4 1018.3 994.4 -0.1 +8.5 0
ЮЗ 2 10 км слаб. дождь 10/8 600 м
[Sc As op]
+5.0 +1.4 78 +3 +3 1018.8 994.9 0.0
З 3 10 км 10/8 600 м
[Sc As op]
+4.9 +1.9 81 +1 +1 1019.4 995.4
З 3-5
{6}
10 км {дождь} 10/8 600 м
[Sc As op]
+4.1 +0.9 80 +1 +1 1019.7 995.7 0.0
З 3 10 км 10/6 600 м
[Sc As op]
+3.9 +0.3 77 0 0 1019.9 995.9
З 3 10 км 10/8 600 м
[Sc As op]
+3.7 -0.5 74 0 0 1020.2 996.2
ЮЗ 3-4
{4}
10 км {дождь} 10/6 600 м
[Sc As op]
+3.1 +0.1 81 -1 -1 1020.3 996.2 0.0 0
З 3 10 км 9/4 600 м
[Sc Ac As]
+2.6 +0.4 85 -2 -2 1021.1 996.9
З 3 10 км 6/0
[Ac As]
+3.0 +0.6 84 -1 -1 1021.2 997.1
СЗ 3-4
{5}
10 км 6/0
[Ac As]
+2.6 -0.4 81 -1 -1 1021.8 997.6
СЗ 3 10 км 4/0
[Ac lent]
+2.4 -1.0 78 -2 -2 1022.2 998.0
СЗ 3 10 км 4/0
[Ac lent]
+1.6 -1.0 83 -3 -3 1023.0 998.7
СЗ 4-5
{5}
4000 м дымка 8/0
[Ac As]
+1.2 -1.4 83 -4 -4 1024.2 999.8 +0.9 +5.8 0.0 0.0 0
СЗ 2 4000 м дымка 8/0
[Ac As]
+1.8 -1.3 80 -1 -1 1025.0 1000.7
С 3 10 км 3/0
[Ac trans]
+7.7 +0.1 59 +5 +8 1025.2 1001.4
С 2-6
{6}
10 км 1/0
[Ac trans]
+9.2 +0.4 54 +8 +13 1025.9 1002.2
В 3 10 км 6/4 1000 м
[Cu hum Ac trans]
+11.2 +1.5 51 +10 +12 1026.3 1002.8
ЮВ 6 10 км 6/4 1000 м
[Cu med, cong Ac trans]
+10.8 +1.5 53 +8 +9 1026.6 1003.0
ЮВ 4-7
{7}
10 км 6/5 600 м
[Cb calv Ac trans]
+11.4 +2.2 53 +9 +11 1026.6 1003.1
Ю 4 10 км 6/5 600 м
[Cb calv Ac trans]
+11.5 +1.4 50 +10 +11 1026.5 1003.0
Ю 4 10 км 4/4 600 м
[Cb calv]
+11.3 +1.2 50 +9 +10 1027.0 1003.4
Ю 4-6
{7}
10 км 4/0
[Ac trans]
+11.1 +1.0 50 +9 +9 1027.3 1003.7
Ю 3 10 км 1/0
[Ac trans]
+9.6 +1.3 56 +8 +8 1027.9 1004.2
Ю 5 10 км 1/0
[Ac lent]
+6.7 +1.0 67 +3 +3 1028.9 1004.9
ЮВ 5-6
{7}
10 км ясно +6.5 +1.0 68 +3 +3 1029.6 1005.6 +1.2 +12.0
Ю 4 10 км ясно +5.8 +1.6 74 +2 +2 1030.3 1006.2
ЮВ 5 10 км 9/0
[Ac As]
+5.4 +1.8 78 +1 +1 1030.8 1006.6
ЮВ 5-5
{6}
10 км 9/0
[Ac As]
+4.4 +1.2 80 -0 -0 1031.2 1006.9
В 4 10 км 9/0
[Ac As]
+4.2 +1.5 83 -0 -0 1031.6 1007.3
В 3 10 км 9/0
[Ac As]
+4.3 +2.3 87 +1 +1 1032.0 1007.7
СВ 1-2
{4}
10 км 9/0
[Ac As]
+2.7 +1.4 91 +1 +1 1032.6 1008.1
В 4 10 км 3/0
[Ac trans]
+3.1 +1.5 89 -2 -2 1032.6 1008.2
В 4 10 км 1/0
[Ac trans]
+2.8 +1.1 89 -2 -2 1032.2 1007.8
В 3-4
{5}
10 км 1/0
[Ac trans]
+2.5 +1.0 90 -2 -2 1032.5 1008.0
В 4 10 км ясно +2.2 +0.8 90 -3 -3 1032.6 1008.1
В 4 10 км 1/0
[Ac lent]
+2.2 +0.5 89 -3 -3 1032.5 1008.1
СВ 4-6
{6}
10 км 1/0
[Ac lent]
+1.2 0.0 92 -4 -4 1033.4 1008.8 +1.2 +6.4
СВ 4 4000 м дымка 1/0
[Ac lent]
+2.4 +0.4 87 -3 -1 1033.9 1009.4
В 5 4000 м дымка 1/0
[Ci fib]
+4.3 +1.3 81 -1 +2 1033.7 1009.4
В 5-6
{7}
4000 м дымка ясно +6.8 +2.4 74 +3 +6 1033.8 1009.7
В 4 10 км ясно +8.3 +2.5 67 +5 +10 1033.7 1009.7
В 2 10 км ясно +9.1 +2.0 61 +8 +14 1033.2 1009.3
ЮВ 2-5
{5}
10 км 3/1 1000 м
[Cu med, cong Ci fib]
+10.3 +1.4 54 +9 +14 1032.5 1008.7 0
В 2 10 км 5/4 1000 м
[Cu med, cong Ci fib]
+11.1 +0.6 48 +10 +12 1032.0 1008.3
штиль 0 10 км 5/4 600 м
[Cb calv Ci fib]
+12.6 +1.1 45 +12 +14 1031.8 1008.2
Ю 2-3
{6}
10 км 3/1 1000 м
[Cu med, cong Ci fib]
+11.0 0.0 47 +10 +10 1031.5 1007.8
В 2 10 км 1/0
[Ci fib]
+8.8 +1.4 60 +7 +7 1031.5 1007.6
ЮВ 4 10 км 1/0
[Ci fib]
+6.3 +0.9 68 +3 +3 1031.8 1007.7
ЮВ 4-4
{4}
10 км ясно +5.8 +0.5 69 +2 +2 1032.1 1008.0 +1.2 +12.6 0
ЮВ 3 10 км ясно +5.8 +0.7 70 +3 +3 1032.4 1008.3
ЮВ 4 10 км ясно +4.4 +0.2 74 0 0 1032.0 1007.8
Ю 1-3
{4}
10 км ясно +4.4 +0.3 75 +3 +3 1032.2 1007.9
ЮВ 3 10 км ясно +4.2 -0.1 74 +1 +1 1031.9 1007.6
ЮВ 3 10 км ясно +4.1 0.0 75 +1 +1 1031.6 1007.3
ЮВ 1-1
{3}
10 км ясно +3.9 -0.2 75 +3 +3 1031.4 1007.1 0
В 1 <100 м ясно +3.3 -0.1 78 +2 +2 1031.1 1006.8
В 1 10 км ясно +1.9 -0.5 84 0 0 1030.5 1006.1
СВ 2-3
{3}
10 км ясно +1.4 -1.0 84 -2 -2 1030.1 1005.6
СВ 2 10 км ясно +0.5 -1.4 87 -3 -3 1029.8 1005.2
С 3 4000 м дымка 3/0
[Ci fib]
-0.3 -1.7 90 -5 -5 1029.4 1004.8
СВ 3-3
{3}
4000 м дымка 5/0
[Cs]
-0.9 -2.4 90 -6 -5 1029.2 1004.6 -1.0 +6.2 0
СЗ 1 4000 м дымка 8/0
[Ac lent Cs]
-0.6 -2.3 88 -3 -1 1029.3 1004.6
СВ 1 4000 м дымка 4/0
[Ac cast Ci fib]
+3.5 -0.2 77 +2 +6 1028.8 1004.5
С 1-2
{2}
4000 м дымка 3/0
[Ac lent Ci fib]
+8.5 +1.5 61 +8 +14 1028.3 1004.4
Ю 2 4000 м дымка 3/0
[Ac lent Ci fib]
+9.6 +1.0 55 +8 +15 1027.7 1003.9
ЮЗ 2 10 км 1/0
[Ci fib]
+10.8 -0.6 45 +10 +17 1026.8 1003.2
Ю 2-4
{5}
10 км 1/0
[Ci fib]
+11.8 -0.3 43 +11 +17 1025.8 1002.3 0
ЮЗ 3 10 км 1/0
[Ci fib]
+12.3 -1.4 39 +11 +14 1024.6 1001.1
Ю 3 10 км 4/0
[Ci fib]
+13.2 -0.9 38 +12 +14 1023.7 1000.4
Ю 1-3
{4}
10 км 4/0
[Ci fib]
+13.4 -0.2 39 +14 +14 1023.3 1000.0
Ю 2 10 км 8/0
[Ac lent Cc]
+12.0 +0.3 45 +11 +11 1023.1 999.7
ЮВ 2 10 км 8/0
[Ac lent Cc]
+9.5 0.0 51 +8 +8 1022.9 999.2
Ю 1-2
{3}
10 км 9/0
[Ac As]
+9.4 +0.6 54 +9 +9 1023.0 999.4 -1.0 +13.5
Ю 1 10 км 10/0
[Ac As]
+9.3 +0.8 55 +9 +9 1022.8 999.1
Ю 1 10 км 10/0
[Ac As]
+8.9 +0.7 56 +9 +9 1022.6 999.0
штиль 0-1
{1}
10 км 10/0
[Ac As]
+8.1 +0.7 60 +8 +8 1022.2 998.5
С 2 10 км 10/0
[Ac As]
+5.9 +0.3 67 +4 +4 1022.1 998.2
С 2 10 км 10/0
[Ac As]
+5.7 +0.1 67 +4 +4 1021.7 997.8
СЗ 3-3
{3}
10 км 3/0
[Ac lent]
+4.9 -0.1 70 +2 +2 1021.2 997.2
СЗ 2 10 км ясно +3.9 -0.2 75 +1 +1 1021.0 996.9
С 2 10 км ясно +2.9 -0.3 79 0 0 1020.5 996.4
СЗ 2-3
{4}
10 км ясно +1.4 -1.2 83 -2 -2 1020.6 996.4
СЗ 3 10 км 3/0
[Ac lent]
+1.0 -1.3 85 -3 -3 1020.6 996.3
СЗ 3 10 км 3/0
[Ac lent Ci fib]
+0.4 -1.5 87 -4 -4 1020.5 996.1
СЗ 3-3
{4}
4000 м дымка 4/0
[Ac lent Ci fib]
+0.1 -1.7 88 -5 -4 1020.6 996.2 +0.1 +9.6
СЗ 2 4000 м дымка 8/0
[Cs]
+0.8 -1.3 86 -3 -1 1021.0 996.7
З 1 4000 м дымка 8/0
[Cs]
+3.3 -0.2 78 +2 +6 1020.9 996.8
ЮЗ 3-5
{5}
4000 м дымка 4/0
[Ac lent Ci fib]
+6.9 +1.3 67 +4 +8 1020.5 996.7
ЮЗ 2 10 км 3/0
[Ac lent Ci fib]
+10.7 +2.2 56 +10 +16 1019.9 996.4
З 4 10 км 4/0
[Ac lent Ci fib]
+15.0 +3.3 45 +14 +18 1018.6 995.5
З 8-12
{14}
10 км 5/0
[Ac lent Ci fib]
+16.2 +4.0 44 +15 +16 1017.7 994.8 0
З 8 10 км 5/0
[Ci fib]
+16.2 +4.6 46 +15 +15 1017.3 994.3
З 8 10 км 8/0
[Cs]
+15.2 +4.6 49 +13 +14 1017.3 994.3
З 7-10
{12}
10 км 8/0
[Cs]
+14.5 +4.7 52 +13 +13 1017.4 994.3
З 6 10 км 8/0
[Cs]
+12.1 +4.7 61 +10 +10 1017.9 994.6
З 4 10 км 8/0
[Cs]
+10.7 +4.5 65 +8 +8 1018.4 995.0
З 4-6
{7}
10 км 4/0
[Ci fib]
+10.0 +4.1 67 +8 +8 1018.8 995.3 +0.1 +17.3 0
З 3 10 км 5/0
[Ac trans]
+8.8 +3.7 70 +6 +6 1019.5 995.9
З 3 10 км ясно +8.1 +3.7 74 +6 +6 1020.0 996.3
СЗ 3 н/о н/о +7.2 +3.3 76 +4 +4 1020.7 996.9
СЗ 2 10 км 8/0
[Ac trans]
+7.7 +2.8 71 +6 +6 1020.7 996.9
С 3 10 км 8/0
[Ac trans]
+7.1 +2.2 71 +4 +4 1020.9 997.1
СВ 2-4
{4}
10 км 10/0
[Ac As]
+7.9 +0.8 61 +6 +6 1020.9 997.2 0
СВ 4 10 км 10/0
[Ac As]
+8.7 +1.1 59 +6 +6 1021.1 997.4
СВ 2 10 км 10/0
[Ac As]
+8.5 +1.0 59 +7 +7 1021.2 997.5
СВ 2-4
{6}
10 км 10/0
[Ac As]
+8.5 +1.3 61 +7 +7 1021.4 997.8
СВ 5 10 км 10/0
[Ac As]
+8.9 +1.1 58 +6 +6 1021.3 997.7
В 5 н/о н/о +8.1 +1.8 64 +5 +5 1021.3 997.6
В 4-7
{8}
10 км слаб. дождь 10/6 600 м
[Sc Ac As]
+7.3 +2.8 73 +4 +4 1021.5 997.7 +6.6 +10.0 0.0 0.0 0
СВ 4 10 км слаб. дождь 10/6 600 м
[Sc Ac As]
+6.5 +3.7 82 +3 +3 1022.1 998.3 0.0
СВ 3 10 км слаб. дождь 10/6 600 м
[Sc Ac As]
+6.5 +3.9 83 +3 +4 1022.3 998.5 0.0
СВ 2-4
{5}
4000 м слаб. дождь 10/8 600 м
[Sc As op]
+6.8 +4.8 87 +5 +5 1022.3 998.5 0.2
С 2 4000 м слаб. дождь 10/8 600 м
[Sc As op]
+7.2 +4.8 85 +5 +5 1022.1 998.3 0.1
СВ 3 4000 м дымка 10/8 600 м
[Sc As op]
+7.7 +4.7 81 +5 +5 1021.4 997.7
СВ 3-6
{6}
10 км {дождь} 10/8 600 м
[Cu Sc As op]
+8.0 +4.8 80 +5 +6 1020.6 996.9 0.1 0
СВ 4 10 км слаб. дождь 10/8 600 м
[Sc As op]
+8.1 +4.7 79 +5 +5 1019.9 996.2 0.0
СВ 3 10 км в посл. час дождь 10/8 600 м
[Sc As op]
+7.3 +4.8 84 +4 +5 1019.4 995.7 0.0
СВ 2-5
{7}
10 км слаб. дождь 10/8 600 м
[Sc As op]
+6.7 +5.0 89 +4 +4 1019.3 995.5 0.0
СВ 2 10 км слаб. дождь 10/8 600 м
[Sc As op]
+6.3 +5.2 93 +4 +4 1019.1 995.3 0.0
СВ 2 10 км слаб. дождь 10/8 600 м
[Sc As op]
+6.0 +5.0 93 +3 +3 1019.1 995.3 0.1
СВ 2-4
{5}
10 км слаб. дождь 10/8 600 м
[Sc As op]
+5.5 +4.6 94 +3 +3 1019.2 995.3 +5.5 +8.3 0.6
СВ 2 10 км слаб. дождь 10/8 300 м
[Frnb As op]
+5.5 +4.6 94 +3 +3 1019.1 995.2 0.9
СВ 2 10 км слаб. дождь 10/8 300 м
[Frnb As op]
+5.3 +4.4 94 +3 +3 1018.9 995.1 0.7
СВ 2-4
{4}
10 км слаб. дождь 10/8 300 м
[Frnb As op]
+5.1 +4.1 93 +2 +2 1018.7 994.8 2
СВ 3 10 км слаб. дождь 10/8 300 м
[Frnb As op]
+5.1 +4.0 93 +2 +2 1018.4 994.5 0.1
СВ 3 10 км слаб. дождь 10/8 300 м
[Frnb As op]
+4.9 +4.0 94 +1 +1 1018.0 994.1 0.5
С 2-3
{5}
10 км слаб. дождь 10/8 300 м
[Frnb As op]
+4.8 +3.8 93 +2 +2 1017.8 993.9 1
С 2 10 км в посл. час дождь 10/8 600 м
[Sc As op]
+4.7 +3.7 93 +2 +2 1017.5 993.6 0.0
С 2 10 км 10/6 600 м
[Sc As op]
+4.5 +3.6 94 +2 +2 1017.2 993.3
С 2-2
{4}
10 км слаб. дождь 10/8 600 м
[Sc As op]
+4.6 +3.7 94 +2 +2 1017.0 993.1 0.2
СЗ 2 10 км в посл. час дождь 10/6 600 м
[Sc As op]
+4.2 +3.4 95 +1 +1 1017.2 993.3 0.0
С 2 4000 м дымка 10/6 600 м
[Sc As op]
+4.0 +3.2 95 +1 +1 1017.5 993.5
С 1-2
{3}
4000 м дымка {дождь} 10/5 600 м
[Sc Ac As]
+4.2 +3.6 96 +3 +3 1018.0 994.0 +3.9 +5.5 0.0 4.0
СВ 2-3
{3}
4000 м дымка 10/5 600 м
[Sc Ac As]
+5.0 +4.1 94 +2 +3 1018.5 994.6
СВ 1 4000 м дымка 10/5 600 м
[Sc Ac As]
+5.5 +4.2 91 +4 +5 1019.1 995.2
СВ 1-2
{2}
4000 м слаб. дождь 10/6 600 м
[Sc As op]
+6.0 +4.6 91 +5 +5 1019.4 995.5 0.0
Местоположение метеостанции Крайова (Румыния): широта 44.32 долгота 23.87 высота над уровнем моря 195 м.
В архиве по умолчанию представлена погода в Крайове за последнюю неделю. Архивные данные за месяц целиком и за предыдущие месяцы, начиная с января 2011 года, Вы можете получить, выбрав интересующий диапазон дат из раскрывающегося списка и нажав кнопку "Найти!".
*Определитесь, кто Вы:
Внимание! Время в таблицах - всемирное. Для получения местного времени необходимо прибавить поправку, которая равна 2 ч.
Смотрите также архив погоды в соседних городах и на ближайших метеорологических станциях:
Партнеры нашего сайта:      
Пояснения к столбцам:
  • Ветер - указаны скорость ветра в м/с - средняя за 10 мин, порывы в срок и между сроками (в фигурных скобках) и направление, откуда дует ветер: С - северный,
  • СВ - северо-восточный, В - восточный, ЮВ - юго-восточный, Ю - южный, ЮЗ - юго-западный, З - западный, СЗ - северо-западный.
  • Видимость - горизонтальная дальность видимости в метрах или километрах. При видимости от 1 до 10 км при отсутствии осадков обычно наблюдается дымка, при ухудшении видимости до 1 км и менее - туман. В сухую погоду видимость может ухудшаться дымом, пылью или мглою.
  • Явления - указаны атмосферные явления, наблюдавшиеся в срок или в последний час перед сроком; фигурными скобками обозначены явления, наблюдавшиеся между сроками (за 1-3 часа до срока); квадратными скобками обозначены град или гололедные отложения с указанием их диаметра в мм.
  • Облачность - указаны через наклонную черту общая и нижняя облачность в баллах и высота нижней границы облаков в метрах; квадратными скобками обозначены формы облаков: Ci - перистые, Cs - перисто-слоистые, Cc - перисто-кучевые, Ac - высококучевые, As - высокослоистые, Sc - слоисто-кучевые, Ns - слоисто-дождевые, Cu - кучевые, Cb - кучево-дождевые. Подробнее классификацию облаков см. в Атласе облаков (PDF).
  • T - Температура воздуха - температура, измеренная на высоте 2 м над землей.
  • Td - Температура точки росы - температура, при понижении до которой содержащийся в воздухе водяной пар достигнет насыщения.
  • f - Относительная влажность воздуха - влажноcть воздуха, измеренная на высоте 2 м над землей.
  • Te - Эффективная температура - температура, которую ощущает одетый по сезону человек в тени. Характеристика душности погоды. При расчете учитывается влияние влажности воздуха и скорости ветра на теплоощущения человека.
  • Tes - Эффективная температура на солнце - температура, которую ощущает человек, с поправкой на солнечный нагрев. Характеристика знойности погоды. Зависит от высоты солнца над горизонтом, облачности и скорости ветра. Ночью, в пасмурную погоду, а также при ветре 12 м/с и более поправка равна нулю.
  • P - Атмосферное давление - приведенное к уровню моря атмосферное давление.
  • Po - Атмосферное давление - измеренное на уровне метеостанции атмосферное давление.
  • Tmin - Минимальная температура - минимум температуры воздуха на высоте 2 м над землей.
  • Tmax - Максимальная температура - максимум температуры воздуха на высоте 2 м над землей.
  • R - Количество осадков - Количество выпавших осадков за период времени, мм. При наведении курсора мыши на число - период времени, за который выпало указанное количество осадков.
  • R24 - Количество осадков - Количество выпавших осадков за 24 часа, мм.
  • S - Снежный покров - Высота снежного покрова, см. При наведении курсора мыши на число - состояние снежного покрова и степень покрытия местности в баллах.